Home   Weather   Wuhan   Past weeks
Flag for China

Past Weather in Wuhan, Hubei, China — Yesterday and Last 2 Weeks

Now
55 °F

Light rain. Fog.


Feels Like: 53 °F
Forecast: 56 / 49 °F
Wind: 8 mph from North

Location: Wuhan Airport

Current Time: Apr 10, 2020 at 3:32:01 pm

Latest Report: Apr 10, 2020 at 3:00 pm


Visibility: 3 mi

Pressure: 30.04 "Hg

Humidity: 82%

Dew Point: 50 °F

Location of WuhanLocation

Past Weather in Wuhan — Graph

°F

Wuhan Temperature Yesterday

Maximum temperature yesterday: 81 °F (at 3:00 pm)
Minimum temperature yesterday: 54 °F (at 3:00 am)
Average temperature yesterday: 68 °F

High & Low Weather Summary for the Past Weeks

 TemperatureHumidityPressure
High81 °F (Apr 9, 3:00 pm)100% (Mar 27, 10:00 pm)30.36 "Hg (Mar 27, 10:00 pm)
Low39 °F (Mar 28, 3:00 am)24% (Apr 9, 4:00 pm)29.77 "Hg (Mar 26, 2:00 pm)
Average56 °F70%30.12 "Hg
* Reported Mar 26 2:00 pm — Apr 10 2:00 pm, Wuhan. Weather by CustomWeather, © 2020

Note: Actual official high and low records may vary slightly from our data, if they occured in-between our weather recording intervals... More about our weather records

Wuhan Weather History for the Previous 24 Hours

Scroll right to see more
 ConditionsComfort  
Time TempWeatherWind HumidityBarometerVisibility
2:00 pm
Fri, Apr 10
61 °FLight rain. Clear.6 mph63%30.07 "Hg4 mi
1:00 pm64 °FClear.8 mph60%30.04 "Hg4 mi
12:00 pm63 °FClear.6 mph64%30.07 "Hg4 mi
11:00 am63 °FHaze.10 mph59%30.07 "Hg3 mi
10:00 am59 °FHaze.8 mph68%30.09 "Hg3 mi
9:00 am57 °FHaze.8 mph72%30.09 "Hg2 mi
8:00 am55 °FFog.8 mph77%30.09 "Hg3 mi
7:00 am54 °FFog.10 mph77%30.09 "Hg2 mi
6:00 am54 °FFog.8 mph82%30.07 "Hg2 mi
5:00 am54 °FFog.10 mph82%30.07 "Hg2 mi
4:00 am54 °FFog.8 mph82%30.04 "Hg2 mi
3:00 am55 °FFog.13 mph77%30.04 "Hg3 mi
2:00 am59 °FFog.10 mph77%30.04 "Hg3 mi
1:00 am63 °FClear.13 mph73%30.04 "Hg10 mi
12:00 am64 °FClear.13 mph60%30.04 "Hg10 mi
11:00 pm
Thu, Apr 9
70 °FClear.8 mph50%30.04 "Hg10 mi
10:00 pm72 °FClear.8 mph41%30.04 "Hg10 mi
9:00 pm72 °FClear.6 mph41%30.01 "Hg10 mi
8:00 pm73 °FClear.6 mph36%29.98 "Hg10 mi
7:00 pm72 °FClear.No wind36%29.98 "Hg10 mi
6:00 pm77 °FSunny.6 mph30%29.95 "Hg10 mi
5:00 pm79 °FPassing clouds.3 mph28%29.95 "HgN/A
4:00 pm81 °FSunny.3 mph24%29.98 "Hg10 mi
3:00 pm81 °FPassing clouds.3 mph26%29.98 "HgN/A
Weather by CustomWeather, © 2020

See weather overview

Advertising